map of CAY home
CAY - Airport
Location
City:  Cayenne, French Guiana
Name:Rochambeau
ICAO:SOCA
IATA:CAY

Details
Type:Airport (Aerodrome, Airfield)
Latitude:449'11"N (4.819722)
Longitude:5221'43"W (-52.361943)
Elevation:26 ft (8 m)
Variation:18.38W (WMM2015 magnetic declination)
-0.02 annual change
Runways:1
Longest:10499 × 148 ft (3200 × 45 m), paved

Time
Time Zone:UTC-3
Local Time:

Weather
METAR:SOCA 260330Z AUTO 00000KT CAVOK 26/24 Q1010 TEMPO 4000 SHRA SCT015TCU
TAF:SOCA 252300Z 2600/2624 VRB02KT 9999 SCT023 BKN070
TEMPO 2600/2612 4000 SHRA SCT015TCU
FM261200 06012KT 9999 SCT025

Related Locations
Nearby:
Farthest:AMQ: 12350 mi / 19875 km
Ambon [Pattimura Airport], ML, ID

Find:

   beyond  
but within

Other Information
Maps:
NOTAMs:
Links:
Sources:

  
flag of French Guiana   

Sectional Chart

Flight Planning
at skyvector.com

Satellite Image

Google Maps Satellite view

 

Copyright © 2004-2017 Karl L. Swartz. All rights reserved.
The Great Circle Mapper name and logo are trademarks of the Great Circle Mapper.
All other trademarks mentioned herein belong to their respective owners.
Please see credits for attibutions and further copyright information.

  Follow gcmap on Facebook Follow gcmap on Twitter Follow gcmap on Google+ GCmap on LinkedIn

hCard Microformat

Geo Microformat